Weather History for PAMR - December, 2012

Change the Weather History Date:

Wednesday, December 5, 2012

  Actual Average Record
Temperature  
Mean Temperature -4 °F -  
Max Temperature 3 °F 21 °F 41 °F (2000)
Min Temperature -11 °F 11 °F -11 °F (2012)
Degree Days  
Heating Degree Days 69    
Moisture  
Dew Point -12 °F    
Average Humidity 75    
Maximum Humidity 83    
Minimum Humidity 66    
Precipitation  
Precipitation 0.00 in - - ()
Sea Level Pressure  
Sea Level Pressure 29.57 in    
Wind  
Wind Speed 1 mph (ENE)    
Max Wind Speed 5 mph    
Max Gust Speed -    
Visibility 10 miles    
Events      
Averages and records for this station are not official NWS values.
T = Trace of Precipitation, MM = Missing Value Source: NWS Daily Summary

Daily Weather History Graph

Daily Weather History Graph

Search for Another Location

Airport or City:

Trip Planner

Search our weather history database for the weather conditions in past years. The results will help you decide how hot, cold, wet, or windy it might be!

Date:

Astronomy

Dec. 05, 2012 Rise Set
Actual Time 9:54 AM AKST 3:45 PM AKST
Civil Twilight 8:55 AM AKST 4:45 PM AKST
Nautical Twilight 7:56 AM AKST 5:43 PM AKST
Astronomical Twilight 7:03 AM AKST 6:36 PM AKST
Moon No Moon Rise 12:53 PM AKST
Length of Visible Light 7h 50m
Length of Day
5h 50m
Waning Gibbous, 58% of the Moon is Illuminated
Dec 5
Waning Gibbous
Dec 6
Last Quarter
Dec 12
New
Dec 19
First Quarter
Dec 28
Full

Hourly Weather History & Observations

Time (AKST) Temp. Windchill Dew Point Humidity Pressure Visibility Wind Dir Wind Speed Gust Speed Precip Events Conditions
12:53 AM -9.0 °F - -15.0 °F 75% 29.52 in 10.0 mi Calm Calm - N/A   Clear
1:53 AM -9.9 °F -19.2 °F -15.0 °F 78% 29.53 in 10.0 mi East 3.5 mph - N/A   Clear
3:18 AM -9.4 °F - -16.6 °F 71% 29.52 in 10.0 mi Calm Calm - N/A   Partly Cloudy
3:53 AM -9.9 °F - -15.0 °F 78% 29.54 in 10.0 mi Calm Calm - N/A   Partly Cloudy
5:53 AM -9.0 °F - -15.0 °F 75% 29.55 in 10.0 mi Calm Calm - N/A   Clear
6:53 AM -11.0 °F - -18.0 °F 71% 29.55 in 10.0 mi Calm Calm - N/A   Clear
7:53 AM -11.0 °F - -17.0 °F 75% 29.55 in 10.0 mi Calm Calm - N/A   Clear
8:53 AM -9.0 °F - -15.0 °F 75% 29.55 in 10.0 mi Calm Calm - N/A   Clear
9:53 AM -8.0 °F - -15.0 °F 71% 29.57 in 10.0 mi Calm Calm - N/A   Clear
10:53 AM -9.0 °F - -16.1 °F 71% 29.57 in 10.0 mi Calm Calm - N/A   Clear
11:53 AM -5.1 °F -13.6 °F -9.9 °F 80% 29.58 in 10.0 mi East 3.5 mph - N/A   Clear
12:53 PM -2.0 °F - -8.0 °F 76% 29.59 in 10.0 mi Calm Calm - N/A   Clear
1:53 PM -2.0 °F - -7.1 °F 79% 29.59 in 10.0 mi Calm Calm - N/A   Clear
2:53 PM 3.0 °F -6.4 °F -6.0 °F 66% 29.59 in 10.0 mi North 4.6 mph - N/A   Clear
3:53 PM 1.0 °F - -7.1 °F 69% 29.59 in 10.0 mi Calm Calm - N/A   Clear
4:53 PM -4.0 °F - -9.0 °F 79% 29.59 in 10.0 mi Calm Calm - N/A   Clear
5:53 PM -0.0 °F - -6.0 °F 76% 29.59 in 10.0 mi Calm Calm - N/A   Clear
6:53 PM -2.9 °F - -9.0 °F 75% 29.59 in 10.0 mi Calm Calm - N/A   Clear
7:53 PM 1.0 °F -6.7 °F -6.0 °F 72% 29.60 in 10.0 mi North 3.5 mph - N/A   Clear
8:53 PM -7.1 °F -18.1 °F -11.0 °F 83% 29.60 in 10.0 mi ENE 4.6 mph - N/A   Clear
9:53 PM -6.0 °F - -11.0 °F 79% 29.60 in 10.0 mi Calm Calm - N/A   Clear
10:53 PM -9.9 °F -19.2 °F -16.1 °F 74% 29.62 in 10.0 mi East 3.5 mph - N/A   Clear
11:53 PM -5.1 °F - -13.0 °F 69% 29.63 in 10.0 mi Calm Calm - N/A   Clear